VOE70ZZ LFMN-LFST

Flight info

Callsign VOE70ZZ
Flight time 0h 58m
Altitude 34000
Route IRMAR DCT KINES DCT VANAS DCT MOBLO DCT UBIMA DCT GILIR DCT PENDU DCT LUL
Aircraft A320/M-SDE3FGHIRWY/LB1

Departure

Time 2026-05-08 19:22
Airport Nice-Côte d'Azur Airport (LFMN)

Arrival

Time 2026-05-08 20:21
Airport Strasbourg Airport (LFST)
Time Latitude Longitude Altitude Speed Heading
2026-05-08 18:42 43.65727 7.20445 25 ft 0 kts 316°
2026-05-08 18:55 43.65726 7.20445 22 ft 0 kts 316°
2026-05-08 18:55 43.65726 7.20446 22 ft 0 kts 315°
2026-05-08 18:58 43.65726 7.20447 23 ft 0 kts 315°
2026-05-08 19:08 43.65714 7.20461 22 ft 4 kts 315°
2026-05-08 19:08 43.65695 7.20486 22 ft 4 kts 326°
2026-05-08 19:08 43.65671 7.20499 22 ft 4 kts
2026-05-08 19:09 43.65656 7.20492 22 ft 0 kts 45°
2026-05-08 19:13 43.65665 7.20504 23 ft 5 kts 45°
2026-05-08 19:13 43.65706 7.20561 22 ft 9 kts 45°
2026-05-08 19:13 43.65750 7.20621 22 ft 8 kts 45°
2026-05-08 19:14 43.65792 7.20678 22 ft 10 kts 45°
2026-05-08 19:14 43.65839 7.20744 22 ft 9 kts 45°
2026-05-08 19:14 43.65890 7.20806 22 ft 11 kts 40°
2026-05-08 19:14 43.65956 7.20893 22 ft 15 kts 45°
2026-05-08 19:15 43.66034 7.21000 22 ft 15 kts 45°
2026-05-08 19:15 43.66105 7.21098 22 ft 14 kts 44°
2026-05-08 19:15 43.66170 7.21187 22 ft 14 kts 45°
2026-05-08 19:15 43.66247 7.21293 22 ft 17 kts 44°
2026-05-08 19:16 43.66322 7.21396 22 ft 13 kts 45°
2026-05-08 19:16 43.66359 7.21457 22 ft 12 kts 56°
2026-05-08 19:16 43.66421 7.21547 22 ft 15 kts 45°
2026-05-08 19:16 43.66520 7.21683 22 ft 14 kts 44°
2026-05-08 19:17 43.66586 7.21774 22 ft 13 kts 45°
2026-05-08 19:17 43.66642 7.21856 22 ft 10 kts 58°
2026-05-08 19:17 43.66637 7.21912 22 ft 9 kts 125°
2026-05-08 19:17 43.66579 7.21995 22 ft 12 kts 134°
2026-05-08 19:18 43.66536 7.22055 22 ft 15 kts 135°
2026-05-08 19:18 43.66461 7.22158 23 ft 15 kts 135°
2026-05-08 19:18 43.66392 7.22253 22 ft 12 kts 135°
2026-05-08 19:18 43.66372 7.22349 22 ft 10 kts 72°
2026-05-08 19:19 43.66416 7.22423 22 ft 10 kts 46°
2026-05-08 19:19 43.66468 7.22493 22 ft 11 kts 44°
2026-05-08 19:19 43.66523 7.22568 22 ft 11 kts 45°
2026-05-08 19:19 43.66576 7.22644 22 ft 10 kts 52°
2026-05-08 19:20 43.66573 7.22728 24 ft 8 kts 123°
2026-05-08 19:20 43.66548 7.22761 23 ft 7 kts 139°
2026-05-08 19:20 43.66510 7.22774 23 ft 3 kts 224°
2026-05-08 19:20 43.66506 7.22768 23 ft 0 kts 225°
2026-05-08 19:21 43.66490 7.22747 23 ft 16 kts 225°
2026-05-08 19:21 43.66222 7.22378 24 ft 89 kts 225°
2026-05-08 19:21 43.65640 7.21579 24 ft 145 kts 225°
2026-05-08 19:22 43.64880 7.20535 478 ft 153 kts 225°
2026-05-08 19:22 43.64123 7.19491 1155 ft 154 kts 226°
2026-05-08 19:22 43.63364 7.18438 1797 ft 155 kts 225°
2026-05-08 19:22 43.62601 7.17392 2396 ft 158 kts 225°
2026-05-08 19:23 43.61817 7.16294 2974 ft 159 kts 224°
2026-05-08 19:23 43.60948 7.15323 3358 ft 174 kts 199°
2026-05-08 19:23 43.59704 7.15275 3661 ft 190 kts 160°
2026-05-08 19:23 43.58487 7.16165 3989 ft 208 kts 148°
2026-05-08 19:24 43.57188 7.17238 4475 ft 221 kts 144°
2026-05-08 19:24 43.56196 7.18836 5197 ft 223 kts 109°
2026-05-08 19:24 43.56061 7.20954 5906 ft 227 kts 76°
2026-05-08 19:24 43.56684 7.22938 6643 ft 230 kts 68°
2026-05-08 19:25 43.57243 7.25010 7378 ft 233 kts 73°
2026-05-08 19:25 43.57728 7.27164 8081 ft 237 kts 68°
2026-05-08 19:25 43.58767 7.28915 8786 ft 242 kts 31°
2026-05-08 19:25 43.60382 7.29509 9496 ft 248 kts 358°
2026-05-08 19:26 43.62096 7.28805 9812 ft 270 kts 329°
2026-05-08 19:26 43.63771 7.27400 10164 ft 292 kts 329°
2026-05-08 19:26 43.65585 7.25968 10421 ft 316 kts 330°
2026-05-08 19:26 43.67584 7.24450 10647 ft 339 kts 331°
2026-05-08 19:27 43.69694 7.22873 11191 ft 349 kts 331°
2026-05-08 19:27 43.71844 7.21271 11948 ft 353 kts 331°
2026-05-08 19:27 43.74017 7.19649 12684 ft 357 kts 330°
2026-05-08 19:27 43.76210 7.18009 13445 ft 360 kts 330°
2026-05-08 19:28 43.78419 7.16352 14160 ft 363 kts 330°
2026-05-08 19:28 43.80646 7.14675 14813 ft 366 kts 330°
2026-05-08 19:28 43.82892 7.12978 15451 ft 369 kts 330°
2026-05-08 19:28 43.85154 7.11264 16087 ft 372 kts 330°
2026-05-08 19:29 43.87437 7.09533 16730 ft 375 kts 330°
2026-05-08 19:29 43.89711 7.07809 17367 ft 379 kts 330°
2026-05-08 19:29 43.92034 7.06046 18014 ft 382 kts 329°
2026-05-08 19:29 43.94380 7.04265 18613 ft 385 kts 329°
2026-05-08 19:30 43.96745 7.02470 19175 ft 389 kts 329°
2026-05-08 19:30 43.99127 7.00660 19727 ft 392 kts 329°
2026-05-08 19:30 44.01535 6.98831 20302 ft 395 kts 329°
2026-05-08 19:30 44.03953 6.96990 20868 ft 398 kts 330°
2026-05-08 19:31 44.06361 6.95149 21404 ft 401 kts 329°
2026-05-08 19:31 44.08814 6.93268 21928 ft 404 kts 329°
2026-05-08 19:31 44.11288 6.91378 22444 ft 407 kts 330°
2026-05-08 19:31 44.13883 6.89731 22934 ft 412 kts 339°
2026-05-08 19:32 44.16676 6.88718 23409 ft 418 kts 349°
2026-05-08 19:32 44.19576 6.88247 23843 ft 421 kts 352°
2026-05-08 19:32 44.22500 6.87817 24243 ft 424 kts 352°
2026-05-08 19:32 44.25439 6.87378 24665 ft 425 kts 352°
2026-05-08 19:33 44.28351 6.86936 25059 ft 426 kts 352°
2026-05-08 19:33 44.31315 6.86483 25434 ft 428 kts 352°
2026-05-08 19:33 44.34288 6.86027 25810 ft 430 kts 352°
2026-05-08 19:33 44.37277 6.85569 26181 ft 433 kts 352°
2026-05-08 19:34 44.40281 6.85113 26554 ft 435 kts 352°
2026-05-08 19:34 44.43294 6.84661 26931 ft 436 kts 352°
2026-05-08 19:34 44.46286 6.84209 27295 ft 438 kts 352°
2026-05-08 19:34 44.49327 6.83744 27621 ft 440 kts 352°
2026-05-08 19:35 44.52385 6.83275 27946 ft 443 kts 352°
2026-05-08 19:35 44.55459 6.82802 28275 ft 445 kts 352°
2026-05-08 19:35 44.58545 6.82329 28610 ft 447 kts 352°
2026-05-08 19:35 44.61653 6.81856 28918 ft 449 kts 352°
2026-05-08 19:36 44.64764 6.81383 29223 ft 451 kts 351°
2026-05-08 19:36 44.67853 6.80910 29511 ft 453 kts 351°
2026-05-08 19:36 44.70994 6.80426 29799 ft 455 kts 351°
2026-05-08 19:36 44.74148 6.79940 30068 ft 456 kts 351°
2026-05-08 19:37 44.77315 6.79450 30293 ft 458 kts 351°
2026-05-08 19:37 44.80489 6.78971 30526 ft 459 kts 352°
2026-05-08 19:37 44.83666 6.78617 30839 ft 458 kts 353°
2026-05-08 19:37 44.86853 6.78387 31135 ft 458 kts 354°
2026-05-08 19:38 44.90038 6.78235 31416 ft 458 kts 355°
2026-05-08 19:38 44.93234 6.78104 31684 ft 458 kts 355°
2026-05-08 19:38 44.96381 6.77957 31948 ft 458 kts 354°
2026-05-08 19:38 44.99566 6.77780 32236 ft 457 kts 354°
2026-05-08 19:39 45.02754 6.77581 32515 ft 457 kts 353°
2026-05-08 19:39 45.05933 6.77367 32816 ft 456 kts 353°
2026-05-08 19:39 45.09100 6.77144 33088 ft 455 kts 353°
2026-05-08 19:39 45.12266 6.76924 33374 ft 455 kts 353°
2026-05-08 19:40 45.15396 6.76710 33676 ft 455 kts 353°
2026-05-08 19:40 45.18565 6.76499 33988 ft 455 kts 353°
2026-05-08 19:40 45.21727 6.76289 34264 ft 454 kts 352°
2026-05-08 19:40 45.24882 6.76077 34519 ft 454 kts 352°
2026-05-08 19:41 45.28028 6.75868 34749 ft 453 kts 352°
2026-05-08 19:41 45.31184 6.75660 34980 ft 453 kts 352°
2026-05-08 19:41 45.34328 6.75447 35181 ft 452 kts 352°
2026-05-08 19:41 45.37483 6.75232 35397 ft 452 kts 352°
2026-05-08 19:42 45.40593 6.75021 35646 ft 452 kts 352°
2026-05-08 19:42 45.43735 6.74810 35895 ft 451 kts 352°
2026-05-08 19:42 45.46875 6.74597 36066 ft 452 kts 352°
2026-05-08 19:43 45.53154 6.74168 36101 ft 451 kts 352°
2026-05-08 19:43 45.59428 6.73753 36112 ft 450 kts 352°
2026-05-08 19:44 45.65637 6.73328 36096 ft 448 kts 352°
2026-05-08 19:44 45.71871 6.72893 36100 ft 448 kts 352°
2026-05-08 19:45 45.78110 6.72461 36122 ft 448 kts 352°
2026-05-08 19:45 45.84294 6.72032 36121 ft 447 kts 352°
2026-05-08 19:46 45.90499 6.71610 36106 ft 446 kts 352°
2026-05-08 19:46 45.99807 6.70988 36112 ft 445 kts 352°
2026-05-08 19:47 46.05989 6.70565 36104 ft 444 kts 352°
2026-05-08 19:47 46.12092 6.69970 36103 ft 439 kts 345°
2026-05-08 19:48 46.17894 6.67572 36097 ft 431 kts 336°
2026-05-08 19:48 46.23574 6.64798 36087 ft 430 kts 336°
2026-05-08 19:49 46.29220 6.62055 36086 ft 430 kts 336°
2026-05-08 19:49 46.34888 6.59286 36078 ft 429 kts 336°
2026-05-08 19:50 46.40551 6.56519 36068 ft 429 kts 336°
2026-05-08 19:50 46.46206 6.53755 36070 ft 428 kts 336°
2026-05-08 19:51 46.51816 6.51011 36058 ft 428 kts 336°
2026-05-08 19:51 46.57455 6.48238 36056 ft 428 kts 336°
2026-05-08 19:52 46.63103 6.45438 36046 ft 428 kts 336°
2026-05-08 19:52 46.68713 6.42654 36041 ft 428 kts 336°
2026-05-08 19:53 46.74359 6.39873 36040 ft 429 kts 336°
2026-05-08 19:53 46.80020 6.37082 36060 ft 429 kts 336°
2026-05-08 19:54 46.85671 6.34257 36057 ft 428 kts 336°
2026-05-08 19:54 46.91313 6.31430 36056 ft 428 kts 336°
2026-05-08 19:55 46.96952 6.28617 36057 ft 428 kts 336°
2026-05-08 19:55 47.02555 6.25821 36062 ft 428 kts 336°
2026-05-08 19:56 47.08073 6.22682 36046 ft 423 kts 329°
2026-05-08 19:56 47.13366 6.18847 36040 ft 423 kts 329°
2026-05-08 19:57 47.18670 6.15027 36033 ft 424 kts 329°
2026-05-08 19:57 47.23945 6.11221 36047 ft 424 kts 329°
2026-05-08 19:58 47.29260 6.07452 36040 ft 426 kts 334°
2026-05-08 19:58 47.32123 6.06254 36034 ft 432 kts 346°
2026-05-08 19:58 47.35147 6.05926 36031 ft 440 kts 357°
2026-05-08 19:59 47.38207 6.06526 36026 ft 448 kts
2026-05-08 19:59 47.41126 6.08058 36020 ft 456 kts 21°
2026-05-08 19:59 47.46772 6.12425 35761 ft 459 kts 22°
2026-05-08 20:00 47.49608 6.14623 35193 ft 461 kts 22°
2026-05-08 20:00 47.52461 6.16829 34279 ft 465 kts 21°
2026-05-08 20:00 47.55343 6.19056 33264 ft 469 kts 21°
2026-05-08 20:00 47.58246 6.21302 32294 ft 470 kts 21°
2026-05-08 20:01 47.61151 6.23556 31252 ft 472 kts 22°
2026-05-08 20:01 47.64056 6.25817 30530 ft 468 kts 21°
2026-05-08 20:01 47.66956 6.27882 29814 ft 456 kts 15°
2026-05-08 20:01 47.69899 6.29251 29175 ft 442 kts
2026-05-08 20:02 47.72888 6.29957 28571 ft 428 kts 359°
2026-05-08 20:02 47.75833 6.30238 27979 ft 421 kts 358°
2026-05-08 20:02 47.78742 6.30515 27402 ft 416 kts 358°
2026-05-08 20:02 47.81622 6.30794 26814 ft 412 kts 358°
2026-05-08 20:03 47.84473 6.31071 26263 ft 408 kts 358°
2026-05-08 20:03 47.87300 6.31346 25680 ft 406 kts 359°
2026-05-08 20:03 47.90115 6.31620 25124 ft 404 kts 359°
2026-05-08 20:03 47.92915 6.31898 24573 ft 402 kts 359°
2026-05-08 20:04 47.95707 6.32177 24035 ft 401 kts 360°
2026-05-08 20:04 47.98452 6.32447 23501 ft 400 kts 360°
2026-05-08 20:04 48.01237 6.32720 22920 ft 399 kts
2026-05-08 20:04 48.04003 6.32995 22422 ft 395 kts
2026-05-08 20:05 48.06740 6.33271 21943 ft 392 kts
2026-05-08 20:05 48.09458 6.33542 21468 ft 389 kts
2026-05-08 20:05 48.12150 6.33805 20998 ft 385 kts
2026-05-08 20:05 48.14785 6.34059 20534 ft 382 kts
2026-05-08 20:06 48.17435 6.34317 20065 ft 380 kts
2026-05-08 20:06 48.20066 6.34578 19583 ft 377 kts
2026-05-08 20:06 48.22684 6.34840 19103 ft 375 kts
2026-05-08 20:06 48.25286 6.35123 18607 ft 375 kts
2026-05-08 20:07 48.27804 6.36141 18079 ft 378 kts 23°
2026-05-08 20:07 48.30002 6.38325 17539 ft 379 kts 42°
2026-05-08 20:07 48.31627 6.41422 17003 ft 379 kts 61°
2026-05-08 20:07 48.32529 6.45080 16478 ft 378 kts 80°
2026-05-08 20:08 48.32736 6.49003 15956 ft 376 kts 89°
2026-05-08 20:08 48.32811 6.52920 15423 ft 375 kts 89°
2026-05-08 20:08 48.32883 6.56829 15071 ft 369 kts 89°
2026-05-08 20:08 48.32930 6.59352 14982 ft 361 kts 89°
2026-05-08 20:09 48.32998 6.63055 14864 ft 349 kts 89°
2026-05-08 20:09 48.33062 6.66648 14741 ft 338 kts 89°
2026-05-08 20:09 48.33143 6.71244 14525 ft 327 kts 89°
2026-05-08 20:09 48.33183 6.73549 14305 ft 326 kts 89°
2026-05-08 20:10 48.33242 6.76957 13948 ft 325 kts 90°
2026-05-08 20:10 48.33299 6.80324 13720 ft 319 kts 90°
2026-05-08 20:10 48.33355 6.83591 13568 ft 303 kts 90°
2026-05-08 20:10 48.33407 6.86673 13295 ft 290 kts 90°
2026-05-08 20:11 48.33456 6.89632 12806 ft 285 kts 90°
2026-05-08 20:11 48.33504 6.92608 12283 ft 283 kts 90°
2026-05-08 20:11 48.33552 6.95564 11744 ft 281 kts 90°
2026-05-08 20:11 48.33600 6.98490 11224 ft 279 kts 90°
2026-05-08 20:12 48.33645 7.01408 10708 ft 277 kts 90°
2026-05-08 20:12 48.33689 7.04294 10211 ft 275 kts 90°
2026-05-08 20:12 48.33731 7.07124 9677 ft 273 kts 90°
2026-05-08 20:12 48.33772 7.09959 9147 ft 269 kts 90°
2026-05-08 20:13 48.33814 7.12760 8715 ft 265 kts 90°
2026-05-08 20:13 48.33851 7.15525 8308 ft 265 kts 90°
2026-05-08 20:13 48.33888 7.18283 8030 ft 261 kts 90°
2026-05-08 20:13 48.33925 7.20992 7576 ft 258 kts 90°
2026-05-08 20:14 48.33962 7.23697 7180 ft 257 kts 90°
2026-05-08 20:14 48.34000 7.26341 7042 ft 249 kts 90°
2026-05-08 20:14 48.34302 7.28848 6927 ft 241 kts 69°
2026-05-08 20:14 48.35130 7.31002 6629 ft 244 kts 49°
2026-05-08 20:15 48.36262 7.32910 6281 ft 245 kts 49°
2026-05-08 20:15 48.37387 7.34810 5889 ft 240 kts 49°
2026-05-08 20:15 48.38479 7.36660 5522 ft 233 kts 49°
2026-05-08 20:15 48.39549 7.38475 5164 ft 229 kts 50°
2026-05-08 20:16 48.40594 7.40248 4810 ft 223 kts 50°
2026-05-08 20:16 48.41604 7.41963 4466 ft 215 kts 50°
2026-05-08 20:16 48.42583 7.43627 4126 ft 208 kts 50°
2026-05-08 20:16 48.43511 7.45206 3844 ft 199 kts 50°
2026-05-08 20:17 48.44407 7.46730 3523 ft 190 kts 50°
2026-05-08 20:17 48.45258 7.48177 3232 ft 178 kts 51°
2026-05-08 20:17 48.46060 7.49543 2957 ft 171 kts 51°
2026-05-08 20:17 48.46829 7.50855 2692 ft 162 kts 51°
2026-05-08 20:18 48.47550 7.52084 2454 ft 152 kts 51°
2026-05-08 20:18 48.48224 7.53234 2220 ft 142 kts 51°
2026-05-08 20:18 48.48858 7.54316 2019 ft 135 kts 51°
2026-05-08 20:18 48.49472 7.55364 1813 ft 132 kts 51°
2026-05-08 20:19 48.50077 7.56399 1593 ft 132 kts 50°
2026-05-08 20:19 48.50684 7.57436 1378 ft 131 kts 50°
2026-05-08 20:19 48.51289 7.58470 1164 ft 132 kts 48°
2026-05-08 20:19 48.51886 7.59495 987 ft 133 kts 47°
2026-05-08 20:20 48.52496 7.60536 765 ft 133 kts 46°
2026-05-08 20:20 48.53107 7.61581 571 ft 133 kts 46°
2026-05-08 20:20 48.53679 7.62556 511 ft 103 kts 49°
2026-05-08 20:20 48.53989 7.63091 511 ft 51 kts 47°
2026-05-08 20:21 48.54151 7.63372 512 ft 19 kts 49°
2026-05-08 20:21 48.54206 7.63406 512 ft 9 kts 323°
2026-05-08 20:21 48.54248 7.63354 512 ft 7 kts 320°
2026-05-08 20:21 48.54285 7.63305 512 ft 7 kts 316°
2026-05-08 20:22 48.54301 7.63249 512 ft 5 kts 279°
2026-05-08 20:22 48.54306 7.63199 512 ft 4 kts 277°
2026-05-08 20:22 48.54316 7.63157 512 ft 6 kts 308°
2026-05-08 20:22 48.54355 7.63106 512 ft 8 kts 319°
2026-05-08 20:23 48.54391 7.63042 512 ft 7 kts 304°
2026-05-08 20:23 48.54416 7.62986 512 ft 5 kts 303°
2026-05-08 20:23 48.54433 7.62948 512 ft 4 kts 303°
2026-05-08 20:23 48.54445 7.62920 512 ft 2 kts 304°
2026-05-08 20:24 48.54451 7.62906 512 ft 0 kts 304°